This is the latest recevied weather packets stored in our database for station/object KI4NG. If no packets are shown the sender has not sent any weather packets the latest 10 day(s).
| Time | Temp. | Humidity | Pressure | Rain* | Wind** | Luminosity | Snow |
|---|---|---|---|---|---|---|---|
| 1777979247 | 13.89° C | 70% | 1013.8 hPa | 0 mm | - | 21 W/m² | - |
| 1777978945 | 13.89° C | 74% | 1014 hPa | 0 mm | - | 16 W/m² | - |
| 1777978641 | 14.44° C | 69% | 1013.9 hPa | 0 mm | - | 12 W/m² | - |
| 1777978337 | 14.44° C | 68% | 1013.8 hPa | 0 mm | - | 6 W/m² | - |
| 1777978034 | 13.89° C | 69% | 1013.7 hPa | 0 mm | - | 3 W/m² | - |
| 1777977731 | 13.89° C | 69% | 1013.8 hPa | 0 mm | - | 1 W/m² | - |
| 1777977428 | 13.89° C | 70% | 1013.6 hPa | 0 mm | - | 0 W/m² | - |
| 1777977126 | 13.89° C | 72% | 1013.5 hPa | 0 mm | - | 0 W/m² | - |
| 1777976823 | 13.33° C | 74% | 1013.4 hPa | 0 mm | - | 0 W/m² | - |
| 1777976520 | 13.89° C | 73% | 1013.5 hPa | 0 mm | - | 0 W/m² | - |
| 1777976219 | 13.89° C | 69% | 1013.6 hPa | 0 mm | - | 0 W/m² | - |
| 1777975915 | 13.89° C | 71% | 1013.5 hPa | 0 mm | - | 0 W/m² | - |
| 1777975611 | 13.89° C | 70% | 1013.8 hPa | 0 mm | - | 0 W/m² | - |
| 1777975309 | 13.89° C | 71% | 1013.6 hPa | 0 mm | - | 0 W/m² | - |
| 1777975004 | 13.89° C | 72% | 1013.6 hPa | 0 mm | - | 0 W/m² | - |
| 1777974702 | 13.89° C | 71% | 1013.4 hPa | 0 mm | - | 0 W/m² | - |
| 1777974397 | 13.89° C | 71% | 1013.3 hPa | 0 mm | - | 0 W/m² | - |
| 1777974094 | 13.89° C | 71% | 1013.4 hPa | 0 mm | - | 0 W/m² | - |
| 1777973790 | 13.89° C | 72% | 1013.6 hPa | 0 mm | - | 0 W/m² | - |
| 1777973488 | 13.89° C | 76% | 1013.7 hPa | 0 mm | - | 0 W/m² | - |
| 1777973185 | 13.89° C | 71% | 1013.8 hPa | 0 mm | - | 0 W/m² | - |
| 1777972884 | 14.44° C | 73% | 1013.9 hPa | 0 mm | - | 0 W/m² | - |
| 1777972580 | 14.44° C | 71% | 1013.8 hPa | 0 mm | - | 0 W/m² | - |
| 1777972278 | 14.44° C | 71% | 1013.8 hPa | 0 mm | - | 0 W/m² | - |
| 1777971976 | 14.44° C | 72% | 1013.8 hPa | 0 mm | - | 0 W/m² | - |
* Rain latest hour (hover to see other rain measurements)
** Current wind speed in m/s (hover to see current wind gust speed)